User: anonymous   Login
Location: Unspecified
(0.0000°N, 0.0000°E)
Time: 04:36:54
(UTC+00:00)
Language:

DNEPR OBJECT AD - Orbit

View from above orbital plane
View from above orbital plane
View from above satellite
View from above satellite

Ground track
Ground track

The orbit data is extracted from the following two-line orbital elements,

1 39443U 13066AD  17324.61791025 +.00001028 +00000-0 +99810-4 0  9999
2 39443 097.6387 026.0253 0025660 054.7539 305.6078 14.94514958215697
Epoch (UTC): 20 November 2017 14:49:47
Eccentricity: 0.0025660
inclination: 97.6387°
perigee height: 566 km
apogee height: 602 km
right ascension of ascending node: 26.0253°
argument of perigee: 54.7539°
revolutions per day: 14.94514958
mean anomaly at epoch: 305.6078°
orbit number at epoch: 21569

The dashed part of the orbit path shows where the satellite is in the earth's shadow,  

DLR